Back to catalog

FENGYUN 1C DEB

AliveSSO
NORAD 29807·DEBRIS·🇨🇳 China

Launched May 10, 1999 from Taiyuan Satellite Launch Center

Loading…

Next Passes (next 24 hours)

TLE

FreshSource: Space-Track

Epoch: Sep 14, 2026, 10:13 UTC

1 29807U 99025CZ  26257.42612175  .00000268  00000-0  17504-3 0  9997
2 29807  98.7600 259.2050 0078584 272.7561  86.4616 14.08866505  9725

Track FENGYUN 1C DEB in real time with AllMySat

Download on the App Store